CAPE
0 0 0 0 0 0 0 0 0 0 13 99 158 92 125 103 96 34 86 54 35 43 64 35 13 4 1 7 0 0 0 0 0 0 6 13 11 45 86 187 357 367 344 29
0 0 0 0 0 0 0 0 0 0 113 62 121 96 162 84 126 128 127 125 63 37 54 3 0 0 5 19 10 38 6 0 2 3 0 14 53 68 134 394 537 481 417 222
0 0 0 0 0 0 0 0 0 0 98 144 227 95 74 145 130 105 110 132 91 65 29 17 0 0 14 26 31 76 76 20 1 0 0 48 99 237 180 432 541 411 332 116
0 0 0 0 0 0 0 0 0 0 0 9 353 33 12 50 93 74 16 48 64 94 51 5 17 17 23 59 87 117 139 84 41 0 0 65 132 181 363 596 625 464 237 74
0 0 0 0 0 0 0 0 0 1 4 16 148 63 54 0 0 2 62 48 37 74 63 10 7 38 61 108 99 140 214 148 105 62 0 64 235 377 652 636 763 650 322 120
0 0 0 0 0 0 0 0 13 47 47 3 27 27 0 0 0 0 28 89 46 44 76 100 0 57 95 149 161 146 164 193 154 130 87 65 165 298 333 539 665 827 659 334
0 0 0 0 0 0 0 0 0 0 3 0 0 0 0 0 1 0 7 35 76 35 26 107 13 0 29 82 84 148 133 81 187 150 166 162 172 272 376 507 645 763 763 670
0 0 0 0 0 0 0 0 0 0 0 0 0 0 0 2 12 0 11 1 40 51 34 76 85 36 56 88 152 206 132 97 102 97 198 288 282 268 485 596 675 793 853 899
0 0 0 0 0 0 0 0 0 0 0 0 0 0 0 0 0 0 3 7 15 49 45 101 108 148 152 157 163 190 77 42 74 158 301 353 422 282 322 415 516 678 934 976
0 0 0 0 0 0 0 0 0 0 0 0 0 0 0 0 0 0 68 103 67 47 79 127 123 193 186 232 221 225 80 59 119 238 386 445 455 531 407 489 502 512 652 833
0 0 0 0 0 0 0 0 0 0 0 0 0 0 0 0 0 25 135 137 93 76 100 116 135 149 297 329 314 311 220 168 253 193 386 362 407 493 615 605 646 519 641 742
0 0 0 0 0 0 0 0 0 0 0 0 0 0 0 0 32 69 252 184 173 112 127 193 222 248 271 333 388 464 523 487 444 293 337 333 364 479 512 561 713 797 720 782
0 0 0 0 0 0 0 0 0 0 0 0 0 0 0 1 76 119 340 342 250 287 208 254 269 298 343 427 554 615 723 695 763 640 533 485 450 467 521 534 545 687 740 789
0 0 0 0 1 0 0 0 0 0 0 0 0 0 0 0 22 227 284 500 333 279 245 291 406 352 375 409 507 654 723 763 754 585 514 563 658 716 805 930 932 877 800 777
0 0 0 0 0 0 0 0 0 0 0 0 0 0 0 0 25 239 423 660 486 371 408 455 420 548 616 485 432 474 514 567 596 530 523 551 636 742 722 723 724 651 617 664
0 0 0 0 0 0 0 0 0 0 0 0 0 0 0 52 123 171 449 687 747 818 976 1020 846 718 684 689 694 627 573 526 557 459 476 552 595 571 726 861 912 886 867 797
0 0 0 0 0 0 0 0 2 0 0 0 0 12 69 72 175 220 345 622 841 1075 1224 1283 1317 1351 1254 1185 1163 1185 1171 1210 1112 983 900 777 693 629 556 938 1043 1018 1007 953
0 0 0 0 0 0 0 0 0 0 0 0 0 13 1 60 175 159 232 390 735 1134 1362 1444 1391 1231 1089 852 494 506 727 797 772 741 682 654 773 824 757 683 746 825 891 747
0 0 0 0 0 0 0 0 0 0 0 0 2 7 0 0 15 123 337 394 504 765 1358 1513 1274 1033 691 558 550 449 417 405 398 382 360 382 444 446 393 387 457 426 398 321
0 0 0 1 3 0 0 0 0 0 0 0 0 6 0 52 32 179 189 359 661 998 1375 1374 1141 684 624 286 343 367 344 193 26 5 22 108 223 270 218 182 104 95 124 119
3 1 0 3 0 4 0 0 4 6 0 0 0 9 7 45 230 93 261 471 1012 1345 1353 1452 948 618 245 147 198 34 18 13 22 36 41 29 24 0 1 6 12 10 30 2
0 0 1 8 17 8 0 17 22 0 0 0 0 0 24 57 148 158 167 407 1010 1277 1402 1264 841 502 110 55 3 0 16 176 312 315 122 57 76 2 8 1 1 2 8 2
6 24 3 10 21 23 39 4 2 0 0 3 0 0 4 90 258 607 732 533 928 1314 1286 1047 632 260 33 2 0 102 261 383 307 403 224 77 14 42 110 12 4 6 1 1
34 119 49 65 77 32 3 4 12 0 0 0 0 0 0 1 160 789 1196 431 903 1273 1278 887 416 140 3 0 348 666 528 456 493 300 117 0 1 1 0 0 3 2 6 4
0 33 36 51 87 54 20 11 0 0 0 0 0 0 0 0 142 1121 1193 791 907 1164 1132 753 422 104 0 17 534 702 683 614 400 89 2 0 0 0 0 0 0 0 0 0
0 0 0 0 79 18 16 1 0 0 0 0 0 0 0 0 154 915 1349 1025 950 1042 969 656 288 15 1 315 705 621 708 508 157 0 0 0 0 0 0 0 0 0 0 0
CIN
0 0 0 0 0 0 0 0 0 0 -133 -120 -96 -115 -81 -93 -102 -101 -76 -64 -89 -102 -62 -61 -66 -84 -24 -118 0 0 0 0 0 0 -97 -113 -110 -83 -78 -62 -55 -77 -93 -160
0 0 0 0 0 0 0 0 0 0 -140 -120 -89 -89 -116 -165 -151 -124 -84 -78 -88 -85 -77 -13 0 0 -104 -112 -105 -133 -35 0 -100 -183 0 -112 -93 -83 -107 -46 -57 -77 -84 -128
0 0 0 0 0 0 0 0 0 0 -118 -124 -86 -62 -80 -127 -206 -170 -164 -151 -112 -86 -76 -81 0 0 -117 -115 -114 -120 -132 -168 -21 0 0 -132 -86 -59 -68 -47 -47 -81 -107 -144
0 0 0 0 0 0 0 0 0 0 -2 -57 -80 -51 -75 -109 -147 -230 -222 -204 -158 -133 -124 -68 -86 -109 -107 -119 -119 -114 -120 -137 -181 0 0 -138 -74 -53 -43 -37 -40 -66 -108 -125
0 0 0 0 0 0 0 0 0 -8 -84 -70 -71 -61 -48 0 0 -131 -222 -236 -183 -169 -153 -90 -67 -94 -102 -130 -121 -108 -112 -109 -139 -168 -13 -122 -65 -42 -35 -37 -36 -48 -85 -113
0 0 0 0 0 0 0 0 -115 -125 -86 -33 -40 -42 0 0 0 0 -144 -228 -260 -218 -187 -147 0 -143 -123 -131 -143 -127 -145 -105 -114 -134 -132 -117 -93 -58 -42 -45 -32 -32 -48 -73
0 0 0 0 0 0 0 0 0 0 -11 0 0 0 0 0 -60 0 -139 -193 -268 -254 -217 -160 -124 0 -131 -133 -165 -138 -152 -122 -120 -119 -117 -104 -89 -61 -53 -34 -28 -34 -37 -45
0 0 0 0 0 0 0 0 0 0 0 0 0 0 0 -10 -126 0 -209 -28 -327 -327 -291 -220 -182 -171 -160 -159 -166 -161 -199 -105 -123 -104 -106 -105 -94 -78 -51 -43 -30 -24 -28 -33
0 0 0 0 0 0 0 0 0 0 0 0 0 0 0 0 0 0 -186 -164 -298 -346 -336 -246 -199 -171 -162 -161 -186 -213 -157 -107 -120 -114 -93 -101 -94 -90 -60 -58 -51 -33 -34 -25
0 0 0 0 0 0 0 0 0 0 0 0 0 0 0 0 0 0 -162 -168 -255 -366 -349 -272 -216 -175 -196 -174 -205 -227 -190 -158 -137 -121 -112 -97 -96 -89 -75 -59 -52 -48 -39 -38
0 0 0 0 0 0 0 0 0 0 0 0 0 0 0 0 0 -116 -131 -194 -248 -306 -333 -257 -204 -187 -166 -166 -194 -198 -214 -176 -170 -165 -140 -118 -101 -91 -83 -66 -50 -55 -40 -38
0 0 0 0 0 0 0 0 0 0 0 0 0 0 0 0 -125 -152 -114 -146 -265 -306 -308 -257 -242 -211 -188 -195 -214 -202 -179 -186 -186 -167 -152 -127 -107 -90 -72 -71 -49 -46 -40 -40
0 0 0 0 0 0 0 0 0 0 0 0 0 0 0 -26 -117 -142 -126 -137 -237 -265 -324 -265 -248 -239 -215 -199 -205 -213 -192 -172 -166 -163 -148 -124 -109 -93 -84 -74 -66 -57 -45 -39
0 0 0 0 -13 0 0 0 0 0 0 0 0 0 0 0 -79 -113 -160 -161 -185 -233 -232 -225 -215 -216 -207 -213 -206 -198 -195 -203 -183 -187 -162 -134 -129 -104 -78 -54 -62 -54 -65 -59
0 0 0 0 0 0 0 0 0 0 0 0 0 0 0 0 -34 -101 -167 -189 -163 -195 -205 -202 -192 -214 -217 -242 -240 -251 -251 -225 -200 -203 -171 -150 -128 -114 -105 -89 -89 -89 -87 -85
0 0 0 0 0 0 0 0 0 0 0 0 0 0 -1 -69 -140 -138 -153 -175 -167 -168 -177 -186 -205 -216 -216 -240 -237 -233 -223 -227 -207 -207 -183 -160 -139 -151 -124 -105 -87 -78 -74 -65
0 0 0 0 0 0 0 0 -34 0 0 0 0 -44 -57 -62 -57 -94 -145 -209 -170 -173 -171 -182 -189 -195 -209 -220 -203 -157 -147 -127 -120 -124 -136 -148 -139 -145 -139 -78 -58 -58 -55 -37
0 0 0 0 0 0 0 0 0 0 0 0 -15 -43 -43 -49 -74 -117 -185 -158 -189 -206 -210 -206 -213 -249 -272 -304 -316 -273 -192 -161 -149 -154 -165 -162 -128 -98 -89 -86 -60 -41 -27 -37
0 0 0 0 0 0 0 0 0 0 0 0 -25 -49 0 0 -157 -85 -195 -222 -196 -169 -210 -230 -242 -270 -335 -305 -287 -278 -270 -231 -205 -224 -232 -210 -178 -149 -147 -119 -76 -64 -56 -61
0 0 0 -12 -6 0 0 0 0 0 0 0 0 -100 0 -159 -70 -70 -255 -269 -259 -230 -234 -224 -285 -333 -312 -392 -366 -310 -284 -306 -426 -422 -397 -273 -190 -162 -173 -171 -188 -174 -125 -97
-15 -14 0 -6 0 -2 -2 0 -147 -46 0 0 -65 -319 -252 -137 -165 -373 -294 -242 -265 -246 -264 -283 -306 -277 -342 -443 -429 -528 -568 -513 -443 -385 -339 -323 -333 0 0 -208 -310 -302 -198 -6
0 -2 -4 -20 -8 -4 -17 -135 -52 -16 0 0 0 0 -380 -430 -392 -360 -324 -262 -256 -272 -281 -300 -316 -344 -429 -497 -213 0 -373 -327 -224 -205 -310 -330 -303 -150 -123 -1 -1 -26 -243 0
-9 -11 -10 -15 -4 -128 -211 -48 -188 0 0 -405 0 0 -530 -425 -367 -330 -290 -299 -267 -294 -319 -341 -347 -408 -533 -406 0 -421 -305 -223 -251 -161 -220 -302 -351 -280 -195 -290 -1 -2 -1 0
-16 -60 -16 -18 -48 -120 -203 -35 -266 0 0 0 0 0 0 -103 -441 -323 -267 -338 -299 -303 -317 -359 -406 -440 -488 -55 -315 -197 -223 -193 -131 -178 -251 -118 -9 -8 0 -2 -11 -6 -1 0
-1 -25 -12 -16 -35 -65 -124 -190 0 0 0 0 0 0 0 0 -450 -284 -277 -334 -330 -308 -307 -370 -379 -433 0 -396 -266 -190 -189 -157 -145 -267 0 0 0 0 0 0 0 0 0 0
0 0 0 -1 -31 -73 -71 -43 0 0 0 0 0 0 0 0 -437 -301 -255 -334 -354 -321 -327 -352 -410 -417 -302 -348 -203 -180 -157 -160 -225 -106 0 0 0 0 0 0 0 0 0 0
Wind_Speed
4 4 7 6 5 10 15 20 24 23 17 15 17 24 7 6 8 2 5 6 4 26 28 28 24 22 15 2 8 10 12 15 7 13 16 20 27 29 28 28 26 25 24 24
4 10 8 6 5 7 12 21 24 21 17 15 20 24 19 6 18 10 6 18 28 29 31 27 25 22 16 9 8 7 7 13 16 22 18 11 25 28 29 28 26 27 27 25
5 9 2 2 2 3 3 5 19 23 17 17 22 25 23 15 14 16 19 21 32 31 26 20 21 23 20 18 19 18 10 15 18 27 19 15 19 21 26 27 26 27 26 21
2 1 3 9 8 4 17 7 13 17 16 20 16 22 23 23 24 17 17 21 24 11 11 18 18 22 23 23 20 17 14 16 20 15 14 2 11 22 26 24 20 6 5 4
5 3 3 5 6 5 4 21 20 13 14 22 18 21 21 22 24 19 17 22 24 28 13 14 15 23 21 12 19 19 17 15 17 15 19 14 14 29 27 29 13 8 7 5
4 13 8 1 3 3 6 13 15 15 17 21 21 21 26 20 23 24 5 19 23 22 11 17 20 17 22 20 20 12 16 14 14 15 19 17 16 19 30 17 20 20 2 6
8 6 2 5 5 6 4 8 17 18 18 23 22 22 30 29 26 28 26 10 21 23 12 12 15 24 21 16 20 17 6 19 19 13 20 21 22 10 3 29 18 12 4 7
16 14 3 3 10 2 0 1 12 23 22 28 20 20 19 21 24 25 24 23 6 22 22 12 14 15 17 19 17 13 7 17 16 22 25 25 23 13 5 14 24 21 18 7
13 14 14 6 2 5 7 8 13 14 18 22 22 24 30 21 21 25 21 20 16 1 17 13 13 18 22 19 17 14 15 17 26 25 26 23 21 16 8 8 18 23 23 22
10 17 15 9 6 10 8 6 14 14 19 24 19 21 22 29 28 23 19 20 17 14 7 10 10 11 11 11 8 12 12 24 28 26 21 18 16 13 9 5 10 15 22 23
4 10 11 12 8 7 11 13 13 13 15 23 24 18 14 22 23 21 18 19 14 14 2 9 10 10 15 6 6 9 15 19 24 17 14 14 14 11 6 6 7 10 12 16
6 11 14 8 16 15 15 17 10 17 17 18 20 22 16 20 22 19 16 15 13 9 6 5 7 11 11 7 6 6 7 10 13 13 10 8 10 9 10 10 7 9 10 13
6 13 17 20 15 16 17 17 17 21 21 15 22 24 19 19 20 18 10 6 9 10 7 4 7 12 14 10 11 7 5 6 5 9 9 8 10 10 13 9 9 8 9 11
11 17 19 19 21 18 18 18 14 8 20 22 21 33 29 24 15 15 7 10 6 8 7 8 1 11 14 6 4 6 8 9 6 5 8 11 9 10 9 9 10 11 10 11
21 24 24 27 30 29 35 41 23 13 11 10 34 32 27 28 19 11 6 3 7 12 11 10 9 4 3 6 10 13 17 16 5 5 6 9 9 9 9 9 10 12 12 13
23 28 28 32 33 29 29 36 31 33 26 32 25 29 29 17 15 11 7 7 8 11 11 10 9 5 3 6 7 8 12 15 13 5 4 3 6 6 7 7 9 12 13 16
28 26 28 37 33 35 34 34 30 33 29 23 21 19 16 21 20 16 14 2 13 11 10 6 4 4 5 7 10 11 12 12 12 13 12 10 7 4 6 6 10 11 14 16
30 28 29 35 31 41 38 34 33 33 35 24 23 22 27 26 23 20 18 6 3 3 3 4 1 3 6 9 11 10 10 11 11 13 14 14 10 5 6 6 6 9 14 16
28 31 32 34 35 38 35 30 32 31 41 33 27 27 24 25 25 28 20 18 11 6 4 3 1 3 7 9 9 8 9 9 10 11 13 14 13 12 10 7 3 4 6 11
31 32 35 34 39 46 33 23 25 26 38 29 30 33 28 22 27 26 24 25 15 7 6 4 2 3 6 8 7 7 8 9 10 11 12 13 14 14 14 13 11 11 11 11
25 28 36 41 45 43 28 25 23 31 29 25 26 27 28 27 26 23 25 23 17 11 8 6 4 1 4 6 5 7 7 8 9 11 12 13 14 14 14 14 14 14 14 13
33 35 37 35 41 48 27 25 28 25 21 21 21 24 26 28 28 28 27 22 14 9 10 9 6 2 4 4 4 5 7 7 8 10 12 13 14 14 14 14 15 15 14 14
34 31 35 31 34 26 24 24 20 20 21 22 24 24 26 28 29 28 26 22 12 9 11 10 7 7 4 4 3 4 6 7 8 10 11 13 14 15 15 15 15 15 14 13
25 24 30 31 28 25 24 23 22 21 22 23 25 27 27 27 28 29 27 22 12 9 13 12 9 7 5 4 2 6 5 7 8 10 12 13 14 14 15 15 16 15 14 14
28 26 28 31 32 29 24 21 20 23 24 24 23 25 26 26 27 27 27 21 13 8 16 15 11 9 7 4 2 5 6 7 8 10 12 14 14 14 15 16 16 16 16 16
20 30 33 37 28 29 31 31 29 30 30 26 26 26 25 27 28 28 26 22 17 14 17 18 14 10 7 4 3 4 5 7 9 11 14 14 14 13 13 13 14 17 16 16
Wind_Direction
24 106 144 123 75 356 335 314 297 313 337 344 314 258 57 87 130 141 162 224 232 179 186 195 178 170 148 93 115 116 123 124 102 115 118 139 166 187 196 196 208 216 229 228
36 175 154 9 31 7 343 307 297 318 332 329 309 274 211 99 176 161 167 174 187 188 223 189 183 171 158 144 132 120 127 134 136 147 133 263 161 185 194 204 217 212 212 180
150 4 66 114 34 45 47 144 323 313 337 321 305 287 268 196 177 177 187 190 199 191 184 176 171 170 161 157 155 147 132 142 146 170 243 258 243 236 223 222 228 224 190 166
334 236 348 354 177 122 197 146 202 331 333 312 329 294 294 290 235 191 187 192 189 204 186 176 171 167 164 163 158 149 140 144 151 145 143 175 129 152 170 171 166 99 111 85
21 26 182 186 151 138 140 310 321 341 333 304 317 306 297 306 263 222 189 190 185 189 197 183 173 171 165 153 157 156 149 144 147 147 158 153 148 200 228 219 155 148 297 103
168 343 346 50 61 103 18 346 347 340 326 312 305 303 271 312 307 303 4 181 181 178 204 178 174 167 168 160 160 157 157 152 148 150 161 165 164 178 229 268 259 263 110 120
335 190 320 323 334 347 5 351 326 323 321 309 312 306 274 275 301 288 289 306 182 181 189 219 178 171 169 166 165 162 195 171 168 158 169 174 180 169 230 236 273 284 296 147
331 333 198 159 179 348 80 355 327 311 313 301 321 311 305 319 314 304 284 274 298 177 177 207 183 176 169 169 164 161 237 261 186 183 185 185 182 172 216 275 266 271 279 294
341 341 350 308 310 167 326 314 323 328 325 319 312 304 282 312 314 307 293 285 295 169 169 184 209 178 174 170 169 168 170 168 187 187 188 185 181 177 190 262 276 271 272 273
333 316 332 342 333 316 301 351 323 323 315 309 319 309 299 274 296 310 298 284 296 292 247 235 203 218 232 246 186 171 175 178 188 185 180 180 181 180 191 231 273 276 275 274
313 313 314 322 322 304 318 321 329 323 314 304 304 316 329 314 313 321 299 281 310 300 233 233 227 226 166 204 197 184 179 183 186 182 180 180 182 190 223 228 259 274 272 278
296 312 300 289 302 301 301 304 322 309 310 307 307 303 323 321 316 321 301 286 306 10 94 162 230 248 248 227 235 200 190 181 188 192 208 214 193 189 199 207 235 270 266 272
300 299 298 298 308 300 293 289 295 295 300 304 298 297 310 318 320 319 333 329 342 346 45 110 261 260 263 267 272 264 220 212 231 188 198 228 206 204 199 225 246 248 257 262
287 289 286 285 295 302 298 297 282 279 295 293 265 263 273 295 321 318 352 291 324 359 32 82 17 269 270 276 264 275 279 284 271 241 196 195 211 211 219 248 257 266 266 268
283 283 284 284 284 288 276 264 282 273 226 273 256 260 228 253 303 317 3 19 109 118 102 96 100 67 348 311 297 293 286 289 283 206 209 213 269 260 249 248 255 268 270 272
291 285 285 281 279 283 278 268 276 271 278 274 287 275 239 306 306 299 318 115 133 133 122 111 103 75 8 342 337 323 306 297 300 309 189 231 273 268 246 236 273 272 277 282
288 288 285 279 279 278 274 266 272 271 273 275 279 288 293 278 284 286 285 238 151 146 136 120 85 35 2 345 333 320 313 311 308 308 312 317 313 278 219 256 285 277 280 282
282 284 285 281 281 269 275 273 267 264 267 264 277 277 261 262 274 284 283 284 221 179 163 130 323 15 359 342 336 334 328 318 316 312 315 319 330 329 314 298 273 283 288 285
272 276 277 275 274 276 278 272 263 261 257 262 267 265 271 269 273 260 287 292 277 191 244 266 79 24 36 359 356 356 349 340 329 334 337 335 342 352 352 354 353 322 301 298
268 269 268 271 269 267 275 283 281 270 259 266 258 258 266 276 271 276 290 284 287 244 179 196 158 40 3 18 7 9 0 353 346 350 352 351 353 354 357 6 10 0 350 339
280 272 263 264 266 267 278 282 280 260 264 268 264 263 265 266 274 287 296 295 282 257 175 187 166 339 14 31 12 21 17 11 11 6 358 350 348 349 350 351 354 0 360 357
275 270 266 268 265 261 277 273 266 271 278 275 271 267 267 269 270 278 287 293 285 245 183 184 182 141 82 60 21 17 13 17 6 357 352 346 345 342 344 350 350 352 359 3
275 275 272 269 269 274 277 270 272 279 278 275 273 273 272 272 274 276 282 286 290 235 189 204 186 142 125 92 36 347 359 6 0 357 350 344 342 340 340 345 349 351 355 360
291 288 274 271 269 273 274 272 268 275 276 281 277 273 277 275 276 271 278 285 286 226 196 205 191 175 167 126 43 335 359 353 353 346 345 345 342 341 341 342 343 346 349 350
290 289 281 273 267 268 267 271 273 275 277 278 281 280 275 274 277 274 277 285 276 241 235 226 208 188 179 148 2 336 348 347 335 333 334 338 339 339 342 343 341 344 343 342
290 282 272 265 269 267 264 268 272 271 272 274 275 276 278 276 274 273 277 281 272 259 248 241 228 207 193 252 316 346 4 334 326 324 326 331 336 336 340 349 353 351 354 351